| time (UTC) | temp F | wind direction | speed MPH | gust MPH | rain 1hr in | rain 24hr in | rain mn in | humidity % | barometer mb |
| 20260831132341 | 72 | 250 | 0.0 | 2.0 | 0.00 | 0.00 | 0.00 | 96 | 1008.2 |
| 20260831131841 | 72 | 246 | 0.0 | 3.0 | 0.00 | 0.00 | 0.00 | 96 | 1008.1 |
| 20260831131339 | 72 | 246 | 1.0 | 3.0 | 0.00 | 0.00 | 0.00 | 95 | 1008.0 |
| 20260831130840 | 72 | 241 | 1.0 | 3.0 | 0.00 | 0.00 | 0.00 | 95 | 1008.0 |
| 20260831130340 | 72 | 246 | 2.0 | 5.0 | 0.00 | 0.00 | 0.00 | 95 | 1008.1 |
| 20260831130059 | 72 | 235 | 2.0 | 6.0 | 0.00 | 0.00 | 0.00 | 96 | 1008.0 |
| 20260831125354 | 72 | 216 | 1.0 | 6.0 | 0.00 | 0.00 | 0.00 | 96 | 1008.0 |
| 20260831124839 | 71 | 225 | 0.0 | 2.0 | 0.00 | 0.00 | 0.00 | 96 | 1008.0 |
| 20260831124339 | 71 | 225 | 0.0 | 0.0 | 0.00 | 0.00 | 0.00 | 96 | 1007.8 |
| 20260831123839 | 71 | 160 | 0.0 | 0.0 | 0.00 | 0.00 | 0.00 | 95 | 1007.7 |
| 20260831123339 | 70 | 159 | 0.0 | 0.0 | 0.00 | 0.00 | 0.00 | 95 | 1007.7 |
| 20260831122839 | 70 | 156 | 0.0 | 0.0 | 0.00 | 0.00 | 0.00 | 95 | 1007.7 |
| 20260831122556 | 70 | 157 | 0.0 | 0.0 | 0.00 | 0.00 | 0.00 | 95 | 1007.6 |
| 20260831121836 | 70 | 156 | 0.0 | 0.0 | 0.00 | 0.00 | 0.00 | 95 | 1007.6 |
| 20260831121336 | 70 | 156 | 0.0 | 0.0 | 0.00 | 0.00 | 0.00 | 95 | 1007.6 |
| 20260831120834 | 70 | 156 | 0.0 | 0.0 | 0.00 | 0.00 | 0.00 | 95 | 1007.6 |
| 20260831120328 | 70 | 156 | 0.0 | 0.0 | 0.00 | 0.00 | 0.00 | 95 | 1007.6 |
| 20260831115823 | 70 | 156 | 0.0 | 0.0 | 0.00 | 0.00 | 0.00 | 95 | 1007.5 |
| 20260831115323 | 70 | 156 | 0.0 | 0.0 | 0.00 | 0.00 | 0.00 | 95 | 1007.4 |
| 20260831114820 | 70 | 156 | 0.0 | 0.0 | 0.00 | 0.00 | 0.00 | 95 | 1007.3 |
| 20260831114318 | 70 | 156 | 0.0 | 0.0 | 0.00 | 0.00 | 0.00 | 95 | 1007.3 |
| 20260831113818 | 70 | 156 | 0.0 | 0.0 | 0.00 | 0.00 | 0.00 | 94 | 1007.2 |
| 20260831113317 | 70 | 156 | 0.0 | 0.0 | 0.00 | 0.00 | 0.00 | 94 | 1007.3 |
| 20260831112817 | 70 | 156 | 0.0 | 0.0 | 0.00 | 0.00 | 0.00 | 94 | 1007.0 |
| 20260831112319 | 70 | 156 | 0.0 | 0.0 | 0.00 | 0.00 | 0.00 | 94 | 1007.0 |
| 20260831111815 | 71 | 156 | 0.0 | 0.0 | 0.00 | 0.00 | 0.00 | 94 | 1007.0 |
| 20260831111314 | 71 | 156 | 0.0 | 0.0 | 0.00 | 0.00 | 0.00 | 94 | 1007.0 |
| 20260831111032 | 71 | 156 | 0.0 | 0.0 | 0.00 | 0.00 | 0.00 | 94 | 1006.9 |
| 20260831110313 | 71 | 156 | 0.0 | 0.0 | 0.00 | 0.00 | 0.00 | 94 | 1006.7 |
| 20260831105811 | 71 | 156 | 0.0 | 2.0 | 0.00 | 0.00 | 0.00 | 94 | 1006.6 |
| 20260831105308 | 71 | 156 | 0.0 | 2.0 | 0.00 | 0.00 | 0.00 | 94 | 1006.7 |
| 20260831104808 | 71 | 156 | 0.0 | 2.0 | 0.00 | 0.00 | 0.00 | 94 | 1006.7 |
| 20260831104308 | 71 | 157 | 0.0 | 0.0 | 0.00 | 0.00 | 0.00 | 94 | 1006.7 |
| 20260831103758 | 71 | 157 | 0.0 | 0.0 | 0.00 | 0.00 | 0.00 | 94 | 1006.8 |
| 20260831103257 | 71 | 157 | 0.0 | 0.0 | 0.00 | 0.00 | 0.00 | 94 | 1006.9 |
| 20260831102759 | 71 | 157 | 1.0 | 3.0 | 0.00 | 0.00 | 0.00 | 94 | 1006.9 |
| 20260831102255 | 71 | 157 | 1.0 | 3.0 | 0.00 | 0.00 | 0.00 | 93 | 1006.6 |
| 20260831101755 | 71 | 157 | 1.0 | 3.0 | 0.00 | 0.00 | 0.00 | 93 | 1006.7 |
| 20260831101253 | 71 | 157 | 1.0 | 3.0 | 0.00 | 0.00 | 0.00 | 93 | 1006.7 |
| 20260831100753 | 71 | 156 | 1.0 | 3.0 | 0.00 | 0.00 | 0.00 | 93 | 1006.7 |
| 20260831100254 | 71 | 156 | 1.0 | 2.0 | 0.00 | 0.00 | 0.00 | 93 | 1006.8 |
| 20260831095751 | 71 | 157 | 1.0 | 2.0 | 0.00 | 0.00 | 0.00 | 93 | 1006.7 |
| 20260831095249 | 71 | 157 | 1.0 | 3.0 | 0.00 | 0.00 | 0.00 | 93 | 1006.7 |
| 20260831094751 | 72 | 161 | 2.0 | 4.0 | 0.00 | 0.00 | 0.00 | 93 | 1006.6 |
| 20260831094248 | 72 | 161 | 2.0 | 4.0 | 0.00 | 0.00 | 0.00 | 93 | 1006.7 |
| 20260831093747 | 72 | 140 | 0.0 | 3.0 | 0.00 | 0.00 | 0.00 | 93 | 1006.6 |
| 20260831093245 | 72 | 143 | 1.0 | 3.0 | 0.00 | 0.00 | 0.00 | 92 | 1006.7 |
| 20260831092743 | 72 | 138 | 2.0 | 4.0 | 0.00 | 0.00 | 0.00 | 92 | 1006.6 |
| 20260831092243 | 72 | 124 | 2.0 | 4.0 | 0.00 | 0.00 | 0.00 | 92 | 1006.5 |
| 20260831092004 | 72 | 150 | 1.0 | 4.0 | 0.00 | 0.00 | 0.00 | 92 | 1006.5 |
| 20260831091235 | 72 | 144 | 2.0 | 4.0 | 0.00 | 0.00 | 0.00 | 92 | 1006.7 |
| 20260831090734 | 72 | 138 | 2.0 | 4.0 | 0.00 | 0.00 | 0.00 | 92 | 1006.7 |
| 20260831090456 | 72 | 144 | 2.0 | 4.0 | 0.00 | 0.00 | 0.00 | 92 | 1006.6 |
| 20260831085734 | 72 | 140 | 1.0 | 5.0 | 0.00 | 0.00 | 0.00 | 92 | 1006.6 |
| 20260831085233 | 72 | 128 | 1.0 | 5.0 | 0.00 | 0.00 | 0.00 | 92 | 1006.6 |
| 20260831084733 | 72 | 141 | 1.0 | 5.0 | 0.00 | 0.00 | 0.00 | 92 | 1006.6 |
| 20260831084231 | 72 | 133 | 1.0 | 3.0 | 0.00 | 0.00 | 0.00 | 91 | 1006.7 |
| 20260831083731 | 73 | 134 | 1.0 | 6.0 | 0.00 | 0.00 | 0.00 | 91 | 1006.5 |
| 20260831083231 | 73 | 140 | 1.0 | 6.0 | 0.00 | 0.00 | 0.00 | 91 | 1006.4 |
| 20260831082731 | 73 | 115 | 1.0 | 4.0 | 0.00 | 0.00 | 0.00 | 91 | 1006.4 |
| 20260831082228 | 73 | 140 | 2.0 | 4.0 | 0.00 | 0.00 | 0.00 | 91 | 1006.4 |
| 20260831081729 | 73 | 148 | 2.0 | 6.0 | 0.00 | 0.00 | 0.00 | 91 | 1006.4 |
| 20260831081446 | 73 | 138 | 3.0 | 6.0 | 0.00 | 0.00 | 0.00 | 91 | 1006.2 |
| 20260831080719 | 73 | 161 | 2.0 | 6.0 | 0.00 | 0.00 | 0.00 | 91 | 1006.4 |
| 20260831080221 | 73 | 132 | 2.0 | 6.0 | 0.00 | 0.00 | 0.00 | 91 | 1006.5 |
| 20260831075717 | 73 | 135 | 2.0 | 5.0 | 0.00 | 0.00 | 0.00 | 91 | 1006.5 |
| 20260831075217 | 73 | 134 | 2.0 | 4.0 | 0.00 | 0.00 | 0.00 | 90 | 1006.5 |
| 20260831074715 | 73 | 154 | 1.0 | 4.0 | 0.00 | 0.00 | 0.00 | 90 | 1006.5 |
| 20260831074416 | 73 | 147 | 2.0 | 7.0 | 0.00 | 0.00 | 0.00 | 90 | 1006.5 |
| 20260831074303 | 73 | 139 | 1.0 | 7.0 | 0.00 | 0.00 | 0.00 | 90 | 1006.5 |
| 20260831073214 | 73 | 128 | 2.0 | 4.0 | 0.00 | 0.00 | 0.00 | 90 | 1006.5 |
| 20260831072713 | 73 | 140 | 2.0 | 5.0 | 0.00 | 0.00 | 0.00 | 90 | 1006.5 |
| 20260831072212 | 73 | 124 | 3.0 | 7.0 | 0.00 | 0.00 | 0.00 | 90 | 1006.6 |
| 20260831071713 | 73 | 150 | 3.0 | 8.0 | 0.00 | 0.00 | 0.00 | 90 | 1006.6 |
| 20260831071213 | 73 | 179 | 3.0 | 8.0 | 0.00 | 0.00 | 0.00 | 89 | 1006.6 |
| 20260831070713 | 73 | 173 | 2.0 | 7.0 | 0.00 | 0.00 | 0.00 | 89 | 1006.6 |
| 20260831070215 | 73 | 140 | 3.0 | 7.0 | 0.00 | 0.00 | 0.00 | 89 | 1006.8 |
| 20260831065713 | 73 | 152 | 3.0 | 6.0 | 0.00 | 0.00 | 0.00 | 89 | 1006.7 |
| 20260831065213 | 73 | 143 | 2.0 | 6.0 | 0.00 | 0.00 | 0.00 | 89 | 1006.8 |
| 20260831064946 | 73 | 135 | 2.0 | 7.0 | 0.00 | 0.00 | 0.00 | 89 | 1006.9 |
| 20260831064428 | 73 | 134 | 1.0 | 6.0 | 0.00 | 0.00 | 0.00 | 89 | 1007.1 |
| 20260831064308 | 73 | 146 | 2.0 | 7.0 | 0.00 | 0.00 | 0.00 | 89 | 1007.0 |
| 20260831063213 | 73 | 138 | 2.0 | 7.0 | 0.00 | 0.00 | 0.00 | 89 | 1007.1 |
| 20260831062714 | 73 | 150 | 1.0 | 7.0 | 0.00 | 0.00 | 0.00 | 89 | 1007.1 |
| 20260831062439 | 73 | 144 | 2.0 | 7.0 | 0.00 | 0.00 | 0.00 | 88 | 1007.3 |
| 20260831061713 | 73 | 157 | 2.0 | 7.0 | 0.00 | 0.00 | 0.00 | 88 | 1007.3 |
| 20260831061212 | 73 | 106 | 2.0 | 5.0 | 0.00 | 0.00 | 0.00 | 88 | 1007.3 |
| 20260831060714 | 73 | 128 | 2.0 | 5.0 | 0.00 | 0.00 | 0.00 | 88 | 1007.4 |
| 20260831060432 | 73 | 147 | 2.0 | 4.0 | 0.00 | 0.00 | 0.00 | 88 | 1007.4 |
| 20260831055710 | 74 | 138 | 2.0 | 6.0 | 0.00 | 0.00 | 0.00 | 88 | 1007.3 |
| 20260831055659 | 74 | 138 | 3.0 | 6.0 | 0.00 | 0.00 | 0.00 | 88 | 1007.2 |
| 20260831054937 | 74 | 140 | 2.0 | 5.0 | 0.00 | 0.00 | 0.00 | 87 | 1007.4 |
| 20260831054208 | 74 | 142 | 2.0 | 5.0 | 0.00 | 0.00 | 0.00 | 87 | 1007.5 |
| 20260831053710 | 74 | 142 | 3.0 | 6.0 | 0.00 | 0.00 | 0.00 | 87 | 1007.6 |
| 20260831053210 | 74 | 135 | 3.0 | 6.0 | 0.00 | 0.00 | 0.00 | 87 | 1007.6 |
| 20260831052709 | 74 | 142 | 2.0 | 6.0 | 0.00 | 0.00 | 0.00 | 86 | 1007.7 |
| 20260831052210 | 74 | 138 | 2.0 | 6.0 | 0.00 | 0.00 | 0.00 | 86 | 1007.8 |
| 20260831051704 | 74 | 144 | 2.0 | 6.0 | 0.00 | 0.00 | 0.00 | 86 | 1007.8 |
| 20260831051217 | 74 | 148 | 2.0 | 7.0 | 0.00 | 0.00 | 0.00 | 86 | 1007.9 |
| 20260831050705 | 74 | 153 | 2.0 | 7.0 | 0.00 | 0.00 | 0.00 | 86 | 1007.9 |
| 20260831050219 | 74 | 145 | 2.0 | 5.0 | 0.00 | 0.00 | 0.00 | 86 | 1008.1 |
| 20260831045705 | 74 | 138 | 2.0 | 7.0 | 0.00 | 0.00 | 0.00 | 85 | 1008.0 |
| 20260831045648 | 74 | 175 | 2.0 | 7.0 | 0.00 | 0.00 | 0.00 | 85 | 1008.0 |
| 20260831045144 | 74 | 155 | 1.0 | 4.0 | 0.00 | 0.00 | 0.00 | 85 | 1008.0 |
| 20260831044206 | 75 | 150 | 1.0 | 4.0 | 0.00 | 0.00 | 0.00 | 85 | 1008.1 |
| 20260831043702 | 75 | 157 | 1.0 | 5.0 | 0.00 | 0.00 | 0.00 | 85 | 1008.1 |
| 20260831043202 | 75 | 139 | 1.0 | 8.0 | 0.00 | 0.00 | 0.00 | 85 | 1008.1 |
| 20260831042702 | 75 | 138 | 2.0 | 10.0 | 0.00 | 0.00 | 0.00 | 84 | 1008.1 |
| 20260831042422 | 75 | 123 | 1.0 | 10.0 | 0.00 | 0.00 | 0.00 | 84 | 1008.1 |
| 20260831041702 | 75 | 136 | 1.0 | 8.0 | 0.00 | 0.00 | 0.00 | 84 | 1008.2 |
| 20260831041203 | 75 | 222 | 2.0 | 8.0 | 0.00 | 0.00 | 0.00 | 84 | 1008.2 |
| 20260831040701 | 75 | 152 | 2.0 | 7.0 | 0.00 | 0.00 | 0.00 | 84 | 1008.2 |
| 20260831040159 | 75 | 136 | 2.0 | 9.0 | 0.00 | 0.00 | 0.00 | 84 | 1008.2 |
| 20260831035657 | 75 | 140 | 3.0 | 9.0 | 0.00 | 0.00 | 0.00 | 83 | 1008.1 |
| 20260831035156 | 75 | 161 | 3.0 | 8.0 | 0.00 | 0.00 | 0.00 | 83 | 1008.0 |
| 20260831034656 | 76 | 115 | 3.0 | 10.0 | 0.00 | 0.00 | 0.00 | 83 | 1007.9 |
| 20260831034156 | 76 | 146 | 3.0 | 10.0 | 0.00 | 0.00 | 0.00 | 83 | 1007.9 |
| 20260831033656 | 76 | 112 | 3.0 | 8.0 | 0.00 | 0.00 | 0.00 | 83 | 1008.0 |
| 20260831033422 | 76 | 162 | 3.0 | 9.0 | 0.00 | 0.00 | 0.00 | 82 | 1008.1 |
| 20260831032656 | 76 | 202 | 3.0 | 14.0 | 0.00 | 0.00 | 0.00 | 82 | 1008.0 |
| 20260831032155 | 76 | 134 | 3.0 | 14.0 | 0.00 | 0.00 | 0.00 | 82 | 1008.1 |
| 20260831031656 | 76 | 193 | 3.0 | 11.0 | 0.00 | 0.00 | 0.00 | 82 | 1008.1 |
| 20260831031155 | 76 | 146 | 3.0 | 11.0 | 0.00 | 0.00 | 0.00 | 81 | 1007.9 |
| 20260831030652 | 76 | 146 | 3.0 | 9.0 | 0.00 | 0.00 | 0.00 | 81 | 1007.8 |
| 20260831030150 | 77 | 156 | 4.0 | 10.0 | 0.00 | 0.00 | 0.00 | 80 | 1007.8 |
| 20260831025648 | 77 | 155 | 4.0 | 10.0 | 0.00 | 0.00 | 0.00 | 80 | 1007.8 |
| 20260831025148 | 77 | 158 | 4.0 | 9.0 | 0.00 | 0.00 | 0.00 | 80 | 1007.9 |
| 20260831024650 | 77 | 152 | 3.0 | 10.0 | 0.00 | 0.00 | 0.00 | 79 | 1007.9 |
| 20260831024147 | 77 | 163 | 3.0 | 10.0 | 0.00 | 0.00 | 0.00 | 79 | 1007.9 |
| 20260831023646 | 77 | 153 | 3.0 | 12.0 | 0.00 | 0.00 | 0.00 | 78 | 1007.9 |
| 20260831023416 | 78 | 149 | 3.0 | 12.0 | 0.00 | 0.00 | 0.00 | 78 | 1008.0 |
| 20260831022642 | 78 | 139 | 4.0 | 12.0 | 0.00 | 0.00 | 0.00 | 77 | 1007.9 |
| 20260831022143 | 78 | 160 | 4.0 | 12.0 | 0.00 | 0.00 | 0.00 | 77 | 1007.9 |
| 20260831021643 | 78 | 158 | 4.0 | 9.0 | 0.00 | 0.00 | 0.00 | 76 | 1008.0 |
| 20260831021156 | 78 | 154 | 4.0 | 9.0 | 0.00 | 0.00 | 0.00 | 76 | 1008.0 |
| 20260831020642 | 78 | 155 | 4.0 | 11.0 | 0.00 | 0.00 | 0.00 | 75 | 1008.0 |
| 20260831020142 | 79 | 144 | 4.0 | 11.0 | 0.00 | 0.00 | 0.00 | 74 | 1008.0 |
| 20260831015642 | 79 | 137 | 4.0 | 11.0 | 0.00 | 0.00 | 0.00 | 74 | 1008.1 |
| 20260831015143 | 79 | 132 | 4.0 | 11.0 | 0.00 | 0.00 | 0.00 | 73 | 1008.2 |
| 20260831014643 | 80 | 150 | 5.0 | 11.0 | 0.00 | 0.00 | 0.00 | 73 | 1008.2 |
| 20260831014142 | 80 | 155 | 5.0 | 11.0 | 0.00 | 0.00 | 0.00 | 72 | 1008.1 |
| 20260831013644 | 80 | 136 | 4.0 | 11.0 | 0.00 | 0.00 | 0.00 | 71 | 1007.9 |
| 20260831013143 | 80 | 157 | 4.0 | 19.0 | 0.00 | 0.00 | 0.00 | 71 | 1007.9 |
| 20260831012642 | 81 | 159 | 4.0 | 19.0 | 0.00 | 0.00 | 0.00 | 70 | 1007.8 |
| 20260831012141 | 81 | 136 | 5.0 | 18.0 | 0.00 | 0.00 | 0.00 | 69 | 1007.7 |
| 20260831011641 | 82 | 167 | 5.0 | 18.0 | 0.00 | 0.00 | 0.00 | 68 | 1007.7 |
| 20260831011143 | 82 | 169 | 5.0 | 14.0 | 0.00 | 0.00 | 0.00 | 67 | 1007.6 |
| 20260831010644 | 82 | 148 | 6.0 | 14.0 | 0.00 | 0.00 | 0.00 | 66 | 1007.5 |
| 20260831010142 | 82 | 175 | 5.0 | 12.0 | 0.00 | 0.00 | 0.00 | 66 | 1007.4 |
| 20260831005643 | 83 | 135 | 3.0 | 11.0 | 0.00 | 0.00 | 0.00 | 66 | 1007.5 |
| 20260831005142 | 83 | 172 | 2.0 | 9.0 | 0.00 | 0.00 | 0.00 | 65 | 1007.3 |
| 20260831004640 | 83 | 146 | 3.0 | 8.0 | 0.00 | 0.00 | 0.00 | 66 | 1007.3 |
| 20260831004140 | 83 | 138 | 4.0 | 11.0 | 0.00 | 0.00 | 0.00 | 65 | 1007.3 |
| 20260831003646 | 83 | 156 | 4.0 | 11.0 | 0.00 | 0.00 | 0.00 | 66 | 1007.3 |
| 20260831003131 | 84 | 124 | 3.0 | 10.0 | 0.00 | 0.00 | 0.00 | 67 | 1007.2 |
| 20260831002633 | 84 | 149 | 2.0 | 5.0 | 0.00 | 0.00 | 0.00 | 67 | 1007.1 |
| 20260831002402 | 84 | 151 | 3.0 | 7.0 | 0.00 | 0.00 | 0.00 | 67 | 1007.0 |
| 20260831001631 | 85 | 142 | 4.0 | 9.0 | 0.00 | 0.00 | 0.00 | 66 | 1006.9 |
| 20260831001348 | 85 | 71 | 4.0 | 9.0 | 0.00 | 0.00 | 0.00 | 66 | 1006.9 |
| 20260831000631 | 85 | 182 | 3.0 | 7.0 | 0.00 | 0.00 | 0.00 | 66 | 1007.0 |
| 20260831000130 | 85 | 140 | 4.0 | 8.0 | 0.00 | 0.00 | 0.00 | 66 | 1007.0 |
| 20260830235634 | 86 | 148 | 4.0 | 9.0 | 0.00 | 0.00 | 0.00 | 66 | 1006.8 |
| 20260830235347 | 86 | 121 | 3.0 | 9.0 | 0.00 | 0.00 | 0.00 | 66 | 1006.8 |
| 20260830234630 | 86 | 146 | 3.0 | 9.0 | 0.00 | 0.00 | 0.00 | 67 | 1007.1 |
| 20260830234129 | 86 | 159 | 3.0 | 11.0 | 0.00 | 0.00 | 0.00 | 67 | 1007.1 |
| 20260830233853 | 86 | 145 | 3.0 | 13.0 | 0.00 | 0.00 | 0.00 | 67 | 1007.0 |
| 20260830233125 | 86 | 211 | 3.0 | 13.0 | 0.00 | 0.00 | 0.00 | 69 | 1007.1 |
| 20260830232632 | 86 | 143 | 2.0 | 7.0 | 0.00 | 0.00 | 0.00 | 70 | 1006.9 |
| 20260830232123 | 86 | 140 | 2.0 | 7.0 | 0.00 | 0.00 | 0.00 | 70 | 1006.9 |
| 20260830231842 | 86 | 137 | 3.0 | 7.0 | 0.00 | 0.00 | 0.00 | 69 | 1007.0 |
| 20260830231349 | 86 | 129 | 3.0 | 10.0 | 0.00 | 0.00 | 0.00 | 69 | 1007.1 |
| 20260830230622 | 86 | 88 | 3.0 | 10.0 | 0.00 | 0.00 | 0.00 | 69 | 1007.2 |
| 20260830230125 | 86 | 172 | 3.0 | 8.0 | 0.00 | 0.00 | 0.00 | 69 | 1007.1 |
| 20260830225620 | 86 | 180 | 4.0 | 10.0 | 0.00 | 0.00 | 0.00 | 69 | 1007.0 |
| 20260830225121 | 86 | 69 | 4.0 | 10.0 | 0.00 | 0.00 | 0.00 | 69 | 1006.9 |
| 20260830224619 | 86 | 151 | 4.0 | 9.0 | 0.00 | 0.00 | 0.00 | 70 | 1006.9 |
| 20260830224119 | 85 | 103 | 3.0 | 8.0 | 0.00 | 0.00 | 0.00 | 70 | 1006.9 |
| 20260830223618 | 85 | 148 | 3.0 | 7.0 | 0.00 | 0.00 | 0.00 | 70 | 1006.9 |
| 20260830223115 | 85 | 78 | 3.0 | 9.0 | 0.00 | 0.00 | 0.00 | 70 | 1006.8 |
| 20260830222616 | 85 | 44 | 2.0 | 10.0 | 0.00 | 0.00 | 0.00 | 69 | 1006.8 |
| 20260830222115 | 85 | 84 | 2.0 | 10.0 | 0.00 | 0.00 | 0.00 | 70 | 1006.9 |
| 20260830222105 | 85 | 105 | 3.0 | 7.0 | 0.00 | 0.00 | 0.00 | 70 | 1006.9 |
| 20260830221113 | 85 | 84 | 2.0 | 6.0 | 0.00 | 0.00 | 0.00 | 70 | 1006.9 |
| 20260830220615 | 85 | 175 | 3.0 | 10.0 | 0.00 | 0.00 | 0.00 | 69 | 1006.9 |
| 20260830220125 | 85 | 82 | 3.0 | 10.0 | 0.00 | 0.00 | 0.00 | 68 | 1006.9 |
| 20260830215613 | 86 | 169 | 3.0 | 9.0 | 0.00 | 0.00 | 0.00 | 69 | 1006.9 |
| 20260830215110 | 86 | 159 | 3.0 | 9.0 | 0.00 | 0.00 | 0.00 | 69 | 1006.9 |
| 20260830214836 | 86 | 103 | 4.0 | 11.0 | 0.00 | 0.00 | 0.00 | 68 | 1007.0 |
| 20260830214111 | 86 | 104 | 5.0 | 11.0 | 0.00 | 0.00 | 0.00 | 68 | 1007.1 |
| 20260830213610 | 86 | 69 | 5.0 | 11.0 | 0.00 | 0.00 | 0.00 | 68 | 1007.1 |
| 20260830213111 | 86 | 63 | 4.0 | 11.0 | 0.00 | 0.00 | 0.00 | 68 | 1007.2 |
| 20260830212611 | 86 | 86 | 4.0 | 10.0 | 0.00 | 0.00 | 0.00 | 69 | 1007.3 |
| 20260830212111 | 85 | 146 | 4.0 | 10.0 | 0.00 | 0.00 | 0.00 | 69 | 1007.3 |
| 20260830211610 | 86 | 161 | 3.0 | 9.0 | 0.00 | 0.00 | 0.00 | 68 | 1007.3 |
| 20260830211111 | 86 | 135 | 3.0 | 9.0 | 0.00 | 0.00 | 0.00 | 68 | 1007.3 |
| 20260830210611 | 85 | 150 | 4.0 | 9.0 | 0.00 | 0.00 | 0.00 | 69 | 1007.4 |
| 20260830210335 | 86 | 135 | 4.0 | 9.0 | 0.00 | 0.00 | 0.00 | 68 | 1007.4 |
| 20260830205610 | 86 | 162 | 4.0 | 9.0 | 0.00 | 0.00 | 0.00 | 68 | 1007.4 |
| 20260830205110 | 86 | 151 | 4.0 | 9.0 | 0.00 | 0.00 | 0.00 | 67 | 1007.5 |
| 20260830204610 | 86 | 157 | 4.0 | 13.0 | 0.00 | 0.00 | 0.00 | 67 | 1007.5 |
| 20260830204111 | 86 | 142 | 3.0 | 13.0 | 0.00 | 0.00 | 0.00 | 66 | 1007.5 |
| 20260830203609 | 86 | 149 | 4.0 | 9.0 | 0.00 | 0.00 | 0.00 | 67 | 1007.6 |
| 20260830203110 | 86 | 168 | 5.0 | 11.0 | 0.00 | 0.00 | 0.00 | 66 | 1007.7 |
| 20260830202831 | 87 | 91 | 6.0 | 15.0 | 0.00 | 0.00 | 0.00 | 66 | 1007.8 |
| 20260830202110 | 86 | 66 | 6.0 | 15.0 | 0.00 | 0.00 | 0.00 | 66 | 1007.7 |
| 20260830201605 | 85 | 70 | 5.0 | 16.0 | 0.00 | 0.00 | 0.00 | 67 | 1007.7 |
| 20260830201107 | 85 | 66 | 5.0 | 16.0 | 0.00 | 0.00 | 0.00 | 68 | 1007.7 |
| 20260830200606 | 85 | 76 | 4.0 | 15.0 | 0.00 | 0.00 | 0.00 | 68 | 1007.7 |
| 20260830200338 | 85 | 131 | 5.0 | 14.0 | 0.00 | 0.00 | 0.00 | 69 | 1007.6 |
| 20260830195606 | 85 | 47 | 5.0 | 14.0 | 0.00 | 0.00 | 0.00 | 69 | 1007.6 |
| 20260830195105 | 84 | 88 | 5.0 | 14.0 | 0.00 | 0.00 | 0.00 | 69 | 1007.7 |
| 20260830194828 | 84 | 106 | 5.0 | 14.0 | 0.00 | 0.00 | 0.00 | 69 | 1007.8 |
| 20260830194107 | 84 | 80 | 5.0 | 15.0 | 0.00 | 0.00 | 0.00 | 70 | 1007.6 |
| 20260830193603 | 84 | 77 | 5.0 | 15.0 | 0.00 | 0.00 | 0.00 | 70 | 1007.6 |
| 20260830193101 | 83 | 67 | 5.0 | 14.0 | 0.00 | 0.00 | 0.00 | 70 | 1007.7 |
| 20260830192824 | 84 | 171 | 4.0 | 14.0 | 0.00 | 0.00 | 0.00 | 71 | 1007.7 |
| 20260830192101 | 83 | 76 | 4.0 | 16.0 | 0.00 | 0.00 | 0.00 | 71 | 1007.7 |
| 20260830191600 | 83 | 136 | 5.0 | 16.0 | 0.00 | 0.00 | 0.00 | 70 | 1007.7 |
| 20260830191100 | 83 | 65 | 5.0 | 14.0 | 0.00 | 0.00 | 0.00 | 71 | 1007.9 |
| 20260830190601 | 83 | 77 | 4.0 | 14.0 | 0.00 | 0.00 | 0.00 | 71 | 1007.9 |
| 20260830190334 | 83 | 86 | 4.0 | 12.0 | 0.00 | 0.00 | 0.00 | 72 | 1007.8 |
| 20260830185555 | 83 | 108 | 3.0 | 12.0 | 0.00 | 0.00 | 0.00 | 72 | 1008.0 |
| 20260830185053 | 83 | 66 | 4.0 | 15.0 | 0.00 | 0.00 | 0.00 | 73 | 1008.4 |
| 20260830184812 | 82 | 159 | 5.0 | 15.0 | 0.00 | 0.00 | 0.00 | 74 | 1008.5 |
| 20260830184316 | 82 | 81 | 5.0 | 13.0 | 0.00 | 0.00 | 0.00 | 73 | 1008.5 |
| 20260830183753 | 81 | 62 | 4.0 | 11.0 | 0.00 | 0.00 | 0.00 | 75 | 1008.5 |
| 20260830183645 | 82 | 146 | 6.0 | 15.0 | 0.00 | 0.00 | 0.00 | 75 | 1008.6 |
| 20260830182544 | 81 | 67 | 4.0 | 11.0 | 0.00 | 0.00 | 0.00 | 74 | 1008.3 |
| 20260830182044 | 81 | 22 | 5.0 | 16.0 | 0.00 | 0.00 | 0.00 | 76 | 1008.3 |
| 20260830181544 | 81 | 94 | 4.0 | 16.0 | 0.00 | 0.00 | 0.00 | 75 | 1008.3 |
| 20260830181044 | 81 | 98 | 2.0 | 9.0 | 0.00 | 0.00 | 0.00 | 77 | 1008.6 |
| 20260830180544 | 81 | 96 | 2.0 | 9.0 | 0.00 | 0.00 | 0.00 | 77 | 1008.8 |
| 20260830180042 | 80 | 140 | 2.0 | 7.0 | 0.00 | 0.00 | 0.00 | 77 | 1008.7 |
| 20260830175803 | 80 | 148 | 2.0 | 8.0 | 0.00 | 0.00 | 0.00 | 78 | 1008.7 |
| 20260830175042 | 80 | 107 | 2.0 | 8.0 | 0.00 | 0.00 | 0.00 | 79 | 1008.9 |
| 20260830174539 | 79 | 115 | 3.0 | 8.0 | 0.00 | 0.00 | 0.00 | 79 | 1009.0 |
| 20260830174040 | 79 | 78 | 3.0 | 9.0 | 0.00 | 0.00 | 0.00 | 79 | 1009.0 |
| 20260830173539 | 78 | 91 | 3.0 | 9.0 | 0.00 | 0.00 | 0.00 | 79 | 1009.0 |
| 20260830173037 | 78 | 89 | 2.0 | 7.0 | 0.00 | 0.00 | 0.00 | 79 | 1009.1 |
| 20260830172538 | 79 | 134 | 1.0 | 6.0 | 0.00 | 0.00 | 0.00 | 78 | 1009.1 |
| 20260830172037 | 79 | 122 | 2.0 | 8.0 | 0.00 | 0.00 | 0.00 | 79 | 1009.1 |
| 20260830171536 | 78 | 90 | 3.0 | 9.0 | 0.00 | 0.00 | 0.00 | 79 | 1009.1 |
| 20260830171037 | 78 | 123 | 3.0 | 9.0 | 0.00 | 0.00 | 0.00 | 79 | 1009.0 |
| 20260830170538 | 79 | 78 | 3.0 | 8.0 | 0.00 | 0.00 | 0.00 | 78 | 1009.1 |
| 20260830170040 | 79 | 88 | 2.0 | 9.0 | 0.00 | 0.00 | 0.00 | 78 | 1009.1 |
| 20260830170030 | 79 | 90 | 2.0 | 9.0 | 0.00 | 0.00 | 0.00 | 78 | 1009.1 |
| 20260830165039 | 79 | 107 | 4.0 | 11.0 | 0.00 | 0.00 | 0.00 | 79 | 1009.1 |
| 20260830164537 | 78 | 147 | 4.0 | 11.0 | 0.00 | 0.00 | 0.00 | 80 | 1009.0 |
| 20260830164038 | 78 | 74 | 3.0 | 10.0 | 0.00 | 0.00 | 0.00 | 79 | 1008.9 |
| 20260830163537 | 78 | 69 | 2.0 | 8.0 | 0.00 | 0.00 | 0.00 | 79 | 1008.8 |
| 20260830163037 | 77 | 109 | 3.0 | 8.0 | 0.00 | 0.00 | 0.00 | 80 | 1008.6 |
| 20260830162537 | 77 | 81 | 3.0 | 8.0 | 0.00 | 0.00 | 0.00 | 80 | 1008.5 |
| 20260830162037 | 77 | 329 | 3.0 | 13.0 | 0.00 | 0.00 | 0.00 | 81 | 1008.4 |
| 20260830161539 | 77 | 90 | 4.0 | 13.0 | 0.00 | 0.00 | 0.00 | 81 | 1008.6 |
| 20260830161037 | 76 | 86 | 3.0 | 10.0 | 0.00 | 0.00 | 0.00 | 80 | 1008.3 |
| 20260830160536 | 76 | 321 | 4.0 | 10.0 | 0.00 | 0.00 | 0.00 | 81 | 1008.3 |
| 20260830160031 | 76 | 61 | 5.0 | 11.0 | 0.00 | 0.00 | 0.00 | 81 | 1008.3 |
| 20260830155530 | 76 | 79 | 5.0 | 11.0 | 0.00 | 0.00 | 0.00 | 81 | 1008.4 |
| 20260830155029 | 76 | 52 | 4.0 | 11.0 | 0.00 | 0.00 | 0.00 | 80 | 1008.5 |
| 20260830154531 | 77 | 31 | 3.0 | 9.0 | 0.00 | 0.00 | 0.00 | 80 | 1008.3 |
| 20260830154031 | 77 | 75 | 3.0 | 8.0 | 0.00 | 0.00 | 0.00 | 81 | 1008.3 |
| 20260830153529 | 76 | 79 | 3.0 | 11.0 | 0.00 | 0.00 | 0.00 | 81 | 1008.4 |
| 20260830153030 | 76 | 109 | 3.0 | 11.0 | 0.00 | 0.00 | 0.00 | 81 | 1008.4 |
| 20260830152529 | 76 | 80 | 3.0 | 9.0 | 0.00 | 0.00 | 0.00 | 81 | 1008.4 |
| 20260830152029 | 77 | 94 | 2.0 | 8.0 | 0.00 | 0.00 | 0.00 | 79 | 1008.1 |
| 20260830151531 | 77 | 34 | 1.0 | 8.0 | 0.00 | 0.00 | 0.00 | 81 | 1008.5 |
| 20260830151030 | 76 | 331 | 1.0 | 8.0 | 0.00 | 0.00 | 0.00 | 82 | 1008.5 |
| 20260830150529 | 76 | 65 | 1.0 | 5.0 | 0.00 | 0.00 | 0.00 | 84 | 1008.4 |
| 20260830150246 | 75 | 92 | 2.0 | 9.0 | 0.00 | 0.00 | 0.00 | 84 | 1008.3 |
| 20260830145527 | 75 | 315 | 3.0 | 9.0 | 0.00 | 0.00 | 0.00 | 83 | 1008.4 |
| 20260830145026 | 74 | 90 | 3.0 | 10.0 | 0.00 | 0.00 | 0.00 | 85 | 1008.1 |
| 20260830144523 | 74 | 83 | 2.0 | 10.0 | 0.00 | 0.00 | 0.00 | 84 | 1008.2 |
| 20260830144028 | 74 | 92 | 2.0 | 5.0 | 0.00 | 0.00 | 0.00 | 86 | 1008.3 |
| 20260830143728 | 73 | 170 | 2.0 | 5.0 | 0.00 | 0.00 | 0.00 | 88 | 1008.4 |
| 20260830142959 | 72 | 95 | 2.0 | 8.0 | 0.00 | 0.00 | 0.00 | 87 | 1008.3 |
| 20260830142454 | 72 | 87 | 3.0 | 8.0 | 0.00 | 0.00 | 0.00 | 88 | 1008.2 |
| 20260830141954 | 72 | 81 | 3.0 | 9.0 | 0.00 | 0.00 | 0.00 | 88 | 1008.4 |
| 20260830141455 | 72 | 85 | 3.0 | 9.0 | 0.00 | 0.00 | 0.00 | 88 | 1008.5 |
| 20260830141446 | 72 | 176 | 2.0 | 7.0 | 0.00 | 0.00 | 0.00 | 88 | 1008.8 |
| 20260830140454 | 72 | 86 | 1.0 | 5.0 | 0.00 | 0.00 | 0.00 | 88 | 1008.9 |
| 20260830135953 | 72 | 196 | 1.0 | 5.0 | 0.00 | 0.00 | 0.00 | 89 | 1008.9 |
| 20260830135453 | 71 | 96 | 1.0 | 5.0 | 0.00 | 0.00 | 0.00 | 90 | 1008.9 |
| 20260830135215 | 71 | 74 | 1.0 | 5.0 | 0.00 | 0.00 | 0.00 | 91 | 1008.7 |
| 20260830134454 | 70 | 87 | 1.0 | 7.0 | 0.00 | 0.00 | 0.00 | 91 | 1008.5 |
| 20260830133950 | 70 | 101 | 2.0 | 7.0 | 0.00 | 0.00 | 0.00 | 91 | 1008.6 |
| 20260830133446 | 70 | 86 | 1.0 | 7.0 | 0.00 | 0.00 | 0.00 | 91 | 1008.5 |
| 20260830132946 | 70 | 103 | 1.0 | 3.0 | 0.00 | 0.00 | 0.00 | 92 | 1008.6 |
| 20260830132445 | 70 | 65 | 1.0 | 6.0 | 0.00 | 0.00 | 0.00 | 92 | 1008.5 |